GFSCGP_700_temp_000.txt.gz
Temp
9 8 9 11 9 9 8 8 8 10 11 8 9 9 9 9 10 10 10 11 11 11 10 10 11 10 9 10 10 9 8 7 7 6 6 5 4 3 2 2 2 2 1 1
7 8 10 9 9 8 8 8 9 9 10 9 9 8 9 9 10 10 10 11 11 10 10 10 10 9 9 10 10 9 8 7 6 6 5 5 4 3 2 2 2 1 1 0
9 9 9 8 8 8 9 8 9 9 9 7 8 7 9 9 9 9 11 11 11 11 10 10 10 9 10 10 9 8 7 6 6 6 5 5 4 3 3 2 1 0 0 -0
7 8 8 8 8 8 8 8 8 7 7 5 7 5 8 8 8 9 11 12 11 11 10 10 9 9 9 8 8 8 7 6 6 5 5 5 4 3 3 2 1 1 0 -0
7 7 7 7 8 7 7 7 8 7 6 5 5 5 7 8 8 10 11 11 11 10 11 10 9 9 8 8 7 7 7 6 6 6 5 4 3 2 2 1 1 0 -0 -1
8 8 7 7 7 7 7 6 6 6 6 2 5 6 7 8 9 9 9 10 10 10 10 10 9 9 8 7 7 7 6 6 6 6 5 4 2 2 1 1 0 -1 -1 -2
8 8 8 8 7 6 6 5 4 1 0 3 7 8 8 8 8 9 9 9 10 9 9 8 9 8 7 8 7 6 6 5 5 6 5 4 3 1 1 0 -0 -1 -2 -3
6 7 7 8 8 8 7 6 4 0 3 6 7 6 8 9 8 9 9 8 9 8 8 8 8 8 7 8 7 7 6 6 6 5 4 3 2 1 0 -0 -1 -1 -2 -3
6 7 7 7 7 7 5 3 6 5 5 3 6 7 8 8 8 9 9 9 8 8 8 8 8 7 7 7 6 6 5 5 5 4 3 3 1 0 0 -0 -1 -1 -2 -2
6 5 6 6 6 6 6 6 3 3 -1 -2 5 7 7 8 8 9 8 8 8 7 7 8 7 7 6 6 5 5 4 4 4 3 2 2 1 0 -1 -1 -1 -1 -2 -3
5 3 5 4 5 6 5 4 3 4 4 0 3 6 8 8 8 8 8 8 7 7 7 7 6 6 5 5 5 5 3 3 2 2 2 1 1 -0 -1 -1 -1 -2 -2 -3
4 3 2 4 4 4 4 4 4 3 4 4 4 5 7 7 8 7 6 5 6 6 5 5 5 4 4 4 3 3 2 2 2 1 1 0 0 -1 -1 -2 -2 -3 -3 -4
0 1 1 2 2 3 2 3 3 3 3 3 2 4 5 6 6 6 5 5 5 5 5 4 4 3 3 3 2 2 1 1 1 0 -0 -0 -1 -1 -2 -2 -3 -3 -4 -4
-1 -3 -3 -2 -0 1 1 2 2 2 1 2 2 3 4 4 4 4 5 5 5 4 3 3 3 3 3 3 2 1 1 0 0 0 -0 -0 -1 -2 -2 -3 -3 -4 -5 -5
-2 -3 -2 -2 -2 -1 -1 0 1 0 0 0 1 2 2 3 3 4 5 4 5 4 3 3 3 2 2 2 2 1 1 0 0 -0 0 -0 -1 -2 -2 -3 -4 -4 -5 -6
-1 -3 -3 -3 -2 -3 -1 -1 -1 -0 -0 -1 -1 0 2 3 3 4 4 5 5 4 3 4 3 3 3 2 1 0 0 1 1 1 0 -0 -1 -2 -3 -4 -4 -5 -5 -6
-3 -3 -4 -4 -3 -2 -4 -2 -0 -1 1 1 -1 3 4 4 3 5 5 4 4 4 4 4 3 3 2 1 2 2 1 1 1 1 1 -0 -1 -2 -2 -3 -4 -5 -6 -8
-3 -4 -4 -4 -3 -4 -2 1 -0 1 1 2 1 3 4 4 5 4 3 3 4 4 4 3 3 3 2 2 2 1 1 1 0 0 -0 -1 -1 -1 -2 -2 -3 -5 -7 -9
-3 -4 -4 -4 -3 -2 -2 -0 1 -0 1 3 2 3 3 4 2 2 3 3 3 3 2 2 2 2 1 1 0 -0 -0 -0 -1 -1 -1 -1 -2 -2 -3 -4 -4 -5 -7 -9
-4 -4 -4 -4 -3 -3 -2 -1 -0 0 -2 -1 2 3 2 2 1 2 3 2 2 2 1 1 1 1 0 -0 -1 -1 -1 -1 -1 -2 -2 -3 -3 -3 -4 -4 -5 -6 -7 -9
-4 -4 -4 -4 -3 -3 -3 -1 -1 -3 -2 0 -1 -0 0 0 -0 -0 0 0 0 0 -0 -0 -0 -1 -1 -1 -1 -1 -1 -1 -2 -2 -2 -3 -3 -4 -4 -4 -5 -6 -8 -11
-5 -5 -5 -4 -4 -4 -4 -3 -3 -4 -4 -3 -4 -3 -4 -4 -3 -2 -1 -2 -1 -2 -1 -1 -2 -2 -2 -3 -2 -2 -2 -2 -2 -3 -3 -4 -4 -3 -4 -4 -6 -7 -9 -12
-9 -8 -10 -9 -7 -7 -6 -7 -8 -10 -7 -6 -7 -6 -5 -4 -4 -4 -3 -3 -2 -2 -2 -2 -2 -2 -2 -2 -2 -3 -3 -3 -3 -3 -3 -4 -4 -3 -4 -5 -6 -8 -11 -13
-12 -11 -12 -11 -10 -8 -7 -6 -11 -10 -10 -9 -9 -9 -9 -8 -8 -7 -5 -4 -4 -4 -4 -4 -4 -3 -3 -3 -3 -4 -3 -4 -4 -3 -3 -4 -4 -4 -5 -5 -7 -8 -11 -13
-13 -13 -13 -13 -12 -11 -11 -12 -11 -11 -11 -10 -10 -10 -9 -9 -9 -10 -8 -7 -6 -6 -6 -5 -5 -4 -4 -5 -5 -5 -5 -5 -5 -4 -4 -4 -5 -5 -6 -6 -8 -10 -13 -14
-14 -13 -14 -14 -13 -14 -14 -13 -13 -12 -12 -12 -12 -10 -10 -9 -9 -9 -9 -6 -5 -4 -4 -4 -5 -4 -5 -5 -5 -6 -6 -6 -5 -5 -5 -5 -6 -6 -6 -7 -9 -12 -13 -14

GFSCGP_700_temp_003.txt.gz
Temp
9 8 8 11 10 9 8 8 7 9 10 8 8 8 9 10 10 10 10 10 11 12 11 10 10 9 9 9 10 10 9 9 8 7 7 6 6 5 5 4 4 3 3 2
8 7 10 9 8 8 7 7 7 8 9 8 8 8 8 9 10 10 9 11 12 12 11 10 10 9 9 9 9 9 9 8 8 7 6 6 5 5 4 4 4 3 3 2
8 8 8 8 8 7 8 7 8 8 8 8 8 7 9 10 10 10 10 11 12 11 12 11 11 10 10 10 10 9 8 8 7 7 6 6 5 5 5 5 3 2 2 2
6 7 7 6 7 7 8 8 8 6 6 5 7 5 7 8 9 9 10 11 12 12 11 11 11 11 10 10 9 9 9 8 7 7 6 6 6 6 5 5 4 3 2 2
7 7 7 6 7 7 7 7 7 7 6 5 4 4 7 7 8 9 10 11 12 11 11 11 10 10 9 9 8 8 8 8 7 7 6 6 6 5 5 4 3 2 1 1
7 6 6 6 6 6 6 6 5 5 5 2 4 5 7 8 9 9 9 10 11 10 10 10 10 9 9 8 8 8 8 7 7 7 6 6 6 5 4 3 2 2 1 0
7 7 7 7 6 5 5 5 3 1 -1 2 7 7 7 8 8 9 9 9 9 9 9 9 9 8 9 8 7 7 8 7 6 6 6 5 5 4 3 3 2 1 0 -0
4 6 7 8 8 8 8 6 3 -1 1 5 7 5 8 8 8 9 9 9 9 9 9 9 8 8 8 7 7 7 7 6 6 5 5 5 5 4 3 2 2 1 0 -1
5 6 7 7 7 7 5 4 7 5 6 2 6 7 7 8 8 9 9 9 9 9 9 8 8 8 8 8 8 7 6 5 6 6 5 4 4 4 3 2 1 1 0 -0
4 3 5 5 5 5 5 5 4 2 -1 -2 5 6 6 7 8 9 9 8 9 8 8 8 8 7 7 7 6 7 6 6 6 5 4 4 3 3 2 1 1 0 -0 -1
1 2 4 3 4 4 4 4 4 4 4 3 3 5 6 7 7 7 7 8 8 8 7 7 7 6 6 6 5 5 5 5 4 4 4 3 2 2 1 1 0 -0 -1 -1
0 -1 1 2 2 3 3 3 3 2 3 3 3 4 4 5 6 6 7 6 6 6 6 6 5 6 5 5 4 4 3 4 3 3 3 2 2 1 1 0 -0 -1 -1 -2
-0 -2 -3 -2 1 2 3 3 2 2 2 1 -1 1 5 3 3 3 4 4 4 5 5 5 4 4 5 4 3 3 3 2 2 2 1 1 1 1 0 -0 -1 -1 -2 -2
-2 -3 -2 -2 0 2 1 2 2 2 1 1 0 0 4 6 6 5 4 4 4 4 4 4 3 4 4 3 3 2 2 2 1 1 1 0 0 -0 -1 -1 -1 -2 -2 -3
-2 -3 -3 -2 -1 -1 -2 -1 1 0 1 -1 -0 -0 1 5 6 5 5 5 4 4 3 2 3 3 3 3 2 2 2 2 1 1 1 0 -0 -0 -1 -1 -1 -2 -3 -3
-2 -3 -3 -3 -1 -1 -1 -0 1 1 1 -1 -2 -1 2 4 5 5 4 5 4 2 3 3 4 3 3 3 2 2 1 1 1 1 2 1 1 1 0 -0 -1 -2 -3 -3
-3 -3 -3 -3 -3 -3 -3 -2 0 -2 -1 -0 -2 2 3 3 3 3 4 3 2 3 2 3 4 3 2 2 1 1 1 1 2 2 2 1 1 0 -0 -1 -1 -1 -2 -3
-5 -5 -4 -3 -3 -3 -3 -1 -1 -1 -0 0 0 0 1 0 2 2 2 1 2 2 2 3 3 3 2 2 3 3 2 2 2 1 0 0 -0 -0 -1 -1 -1 -2 -2 -3
-3 -4 -4 -4 -4 -3 -2 -2 -1 -1 -1 -0 -2 -2 -1 -2 -2 -2 -1 -1 -1 -1 0 1 1 1 1 1 1 2 1 1 0 -0 -1 -1 -1 -2 -2 -2 -3 -3 -3 -4
-4 -4 -5 -4 -4 -4 -1 -2 -3 -3 -4 -5 -5 -6 -5 -4 -4 -4 -3 -1 -2 -0 -0 -0 0 -0 -0 -1 -1 -1 -1 -1 -1 -1 -2 -2 -2 -2 -2 -3 -3 -4 -4 -5
-7 -7 -5 -5 -4 -4 -5 -4 -4 -4 -7 -9 -9 -9 -9 -8 -8 -7 -5 -4 -4 -3 -1 -1 -1 -1 -1 -2 -1 -1 -1 -1 -2 -2 -3 -3 -3 -3 -4 -3 -4 -4 -4 -5
-10 -9 -8 -7 -6 -5 -7 -8 -9 -12 -11 -10 -10 -11 -11 -11 -10 -10 -8 -7 -5 -4 -3 -3 -2 -1 -1 -1 -1 -2 -2 -2 -2 -3 -3 -3 -3 -4 -4 -4 -4 -4 -4 -5
-13 -11 -13 -13 -12 -9 -11 -12 -12 -13 -13 -13 -13 -12 -13 -13 -12 -11 -11 -11 -8 -7 -4 -4 -4 -3 -3 -3 -3 -2 -2 -3 -3 -3 -4 -3 -4 -4 -4 -5 -5 -5 -5 -6
-13 -13 -14 -14 -13 -13 -12 -12 -13 -12 -13 -13 -13 -13 -13 -13 -12 -11 -11 -10 -9 -7 -8 -8 -6 -5 -5 -5 -4 -4 -4 -4 -4 -4 -5 -5 -4 -4 -5 -5 -5 -5 -6 -7
-14 -14 -14 -14 -13 -13 -14 -14 -14 -14 -15 -15 -14 -14 -15 -15 -14 -14 -12 -11 -11 -7 -7 -7 -8 -7 -7 -7 -7 -7 -7 -7 -6 -6 -6 -6 -6 -6 -6 -6 -6 -6 -8 -8
-14 -14 -14 -14 -14 -15 -13 -14 -15 -15 -16 -16 -15 -15 -15 -15 -15 -15 -14 -13 -11 -10 -9 -8 -9 -8 -7 -7 -6 -6 -6 -6 -6 -5 -6 -7 -7 -7 -8 -8 -7 -7 -7 -8

GFSCGP_700_temp_006.txt.gz
Temp
8 7 7 9 9 8 8 7 7 8 9 8 8 8 9 9 9 10 10 10 10 11 12 12 11 10 10 10 10 10 9 9 8 8 7 7 7 6 6 5 4 4 4 4
7 6 8 7 7 7 7 7 6 8 9 8 8 8 8 8 9 10 10 10 11 11 12 11 10 10 10 10 10 10 10 9 8 8 7 7 6 6 5 5 5 5 4 4
7 7 6 6 6 6 7 7 8 8 7 7 6 6 7 9 9 10 10 11 11 11 12 12 12 12 11 11 10 10 9 9 8 8 8 7 6 6 6 6 5 5 4 4
5 6 7 6 5 6 6 8 6 6 5 4 5 4 5 8 9 10 10 10 11 11 11 11 12 11 11 10 10 9 9 9 8 8 8 8 7 6 5 5 5 5 4 4
7 6 6 6 6 5 6 6 6 5 5 4 3 3 6 7 8 9 10 10 10 10 11 11 11 11 10 10 9 9 9 9 8 8 8 7 6 5 5 5 5 5 4 4
7 7 5 6 6 5 5 5 5 5 4 2 5 4 6 7 8 8 8 9 9 9 10 11 10 10 9 9 9 9 8 8 8 8 7 7 6 5 5 5 5 5 4 3
6 7 7 6 6 5 5 4 3 -0 -2 0 6 6 7 7 7 8 8 9 9 9 9 10 9 9 9 8 8 8 8 7 7 7 7 7 6 6 5 5 4 3 3 3
3 4 6 6 6 6 6 6 3 -2 1 5 6 5 7 7 7 8 7 8 8 9 9 8 8 8 8 8 8 8 7 7 7 7 7 6 6 5 4 4 3 3 2 2
3 4 4 4 4 5 5 3 5 3 5 0 5 6 7 7 7 7 7 7 8 9 9 8 8 8 8 8 8 7 6 6 6 6 6 6 5 5 4 3 3 2 2 1
3 2 3 2 3 3 3 4 3 1 -1 -2 4 4 5 6 6 7 7 7 7 8 8 8 8 7 7 7 7 6 5 5 5 5 5 4 4 4 3 3 2 2 1 1
1 -0 1 0 2 3 2 2 2 2 2 2 2 3 4 4 5 6 7 6 6 7 7 8 6 6 5 5 5 5 5 5 5 5 4 4 3 3 3 3 2 2 1 1
-0 -1 -2 -1 -0 1 1 1 2 2 2 2 1 1 6 6 5 5 5 6 5 5 5 6 6 5 5 4 4 4 4 4 4 4 4 3 3 3 3 2 2 1 1 0
-1 -1 -2 -2 -0 1 -0 1 1 2 2 1 -0 -0 5 5 5 5 4 5 4 4 5 5 4 5 4 4 4 3 4 4 3 3 3 3 3 3 2 2 1 1 1 0
-3 -3 -3 -1 -0 1 0 1 1 1 0 1 1 1 2 4 5 6 3 4 3 2 2 3 3 4 3 3 3 3 3 3 2 2 2 2 2 2 1 1 1 1 0 -0
-4 -3 -3 -2 -2 -2 -1 -1 -1 -1 -0 -0 1 1 1 2 4 4 3 3 3 1 1 1 2 2 1 2 2 2 2 2 2 2 2 2 1 1 0 1 0 0 -0 -0
-3 -4 -3 -3 -3 -2 -3 -2 -2 -2 -2 -1 -2 -2 1 1 1 2 2 2 2 -1 -1 -1 -0 0 0 -1 -0 0 1 1 1 1 1 1 1 1 1 1 0 -0 -1 -1
-6 -6 -6 -4 -4 -5 -5 -3 -2 -3 -2 -3 -3 -1 -3 -3 -3 -2 -2 -3 -3 -3 -2 -2 -2 -1 -0 -1 -1 -1 0 1 0 1 2 1 1 0 1 1 0 -0 -1 -1
-6 -7 -7 -6 -6 -5 -4 -3 -3 -3 -3 -3 -4 -5 -5 -4 -2 -3 -3 -4 -4 -3 -3 -3 -3 -1 -0 0 -0 -1 -1 -1 0 1 2 1 1 1 1 0 -0 -0 -1 -1
-6 -6 -8 -7 -5 -4 -4 -4 -6 -5 -5 -6 -8 -8 -7 -6 -6 -6 -5 -4 -4 -4 -4 -4 -4 -2 -2 -1 -1 -1 0 0 0 1 1 -0 -0 -0 -0 1 0 -0 -1 -1
-7 -8 -9 -9 -9 -7 -8 -7 -6 -6 -6 -10 -11 -12 -12 -11 -10 -6 -6 -8 -8 -7 -6 -6 -5 -4 -3 -2 -2 -1 -1 -1 -1 -1 -1 -1 -1 -1 -1 -1 -1 -1 -2 -2
-11 -11 -11 -10 -9 -8 -8 -9 -8 -9 -9 -13 -14 -13 -14 -14 -13 -11 -10 -9 -11 -10 -10 -7 -6 -6 -6 -4 -4 -2 -2 -2 -2 -2 -2 -2 -2 -2 -2 -3 -2 -2 -2 -3
-14 -14 -13 -12 -11 -11 -9 -10 -12 -14 -13 -13 -13 -14 -14 -14 -13 -13 -12 -11 -10 -11 -9 -8 -9 -7 -7 -7 -6 -5 -5 -5 -3 -2 -2 -2 -3 -3 -3 -3 -3 -4 -4 -4
-14 -13 -13 -14 -13 -12 -11 -13 -13 -14 -14 -14 -14 -15 -14 -13 -13 -13 -12 -12 -11 -11 -11 -10 -8 -8 -8 -8 -9 -8 -7 -7 -7 -5 -4 -4 -5 -4 -4 -4 -4 -4 -4 -5
-14 -13 -14 -14 -13 -13 -13 -13 -14 -14 -15 -15 -15 -15 -16 -15 -15 -15 -15 -14 -14 -13 -13 -12 -11 -9 -7 -8 -8 -9 -10 -10 -8 -7 -6 -5 -5 -5 -5 -5 -5 -5 -5 -5
-14 -14 -14 -14 -14 -13 -13 -14 -14 -15 -15 -15 -16 -16 -16 -16 -16 -16 -15 -15 -15 -15 -14 -13 -13 -11 -9 -10 -10 -8 -8 -9 -9 -9 -8 -7 -7 -7 -6 -6 -6 -6 -7 -7
-14 -14 -15 -14 -14 -14 -14 -14 -15 -15 -15 -16 -16 -16 -16 -16 -16 -16 -16 -16 -15 -15 -14 -14 -14 -14 -13 -12 -11 -11 -11 -11 -9 -8 -7 -8 -9 -9 -8 -8 -8 -8 -8 -9

GFSCGP_700_temp_009.txt.gz
Temp
7 7 7 8 8 7 6 6 6 7 8 7 7 7 7 8 8 9 10 10 11 11 12 12 12 11 10 10 9 9 9 9 9 9 8 8 8 7 6 6 6 5 5 4
7 6 8 7 6 6 5 5 5 7 8 7 6 6 7 7 8 10 10 11 11 11 11 12 11 11 10 10 10 10 10 9 9 8 8 7 7 6 5 5 5 5 4 5
6 6 6 6 5 5 6 5 7 6 6 6 6 6 7 9 9 9 11 10 11 11 11 11 11 11 11 12 11 11 10 10 9 8 8 7 7 6 7 6 5 5 5 5
4 6 6 6 5 6 5 7 6 5 4 3 4 3 5 7 9 9 10 10 10 10 10 11 11 11 11 11 11 10 10 10 9 9 8 8 7 7 7 6 5 5 4 4
6 6 5 5 6 5 5 5 5 4 3 3 2 2 6 6 8 9 10 9 9 9 9 9 9 10 10 10 10 10 9 9 9 9 9 9 8 8 7 6 5 5 5 5
6 5 5 5 5 5 4 3 3 3 3 1 4 3 6 8 8 8 8 8 8 8 9 9 10 9 9 9 9 9 9 9 8 8 8 8 8 8 7 7 6 6 5 5
6 5 5 5 5 5 4 3 2 -1 -3 -0 6 5 7 7 7 7 7 7 7 8 8 9 9 9 8 8 9 8 8 8 8 8 8 8 7 7 7 6 6 5 5 4
3 3 4 5 5 4 4 4 2 -3 -1 3 4 4 6 6 6 6 6 7 7 7 8 9 9 8 8 8 8 8 8 8 8 7 7 7 7 7 7 6 5 5 4 3
2 3 3 3 3 3 3 2 4 3 3 -1 3 4 5 6 6 6 6 6 7 7 7 8 8 8 8 8 7 7 7 6 7 7 6 6 6 6 6 5 5 4 3 3
1 1 2 2 2 2 2 3 2 1 -2 -1 2 4 4 5 5 6 6 6 7 6 6 7 7 7 7 7 6 6 6 6 5 5 5 5 5 5 5 5 4 4 3 3
-2 -2 0 -0 0 1 1 1 1 1 1 1 1 2 7 5 3 4 4 5 5 5 5 4 5 5 5 4 4 4 4 4 4 4 4 4 5 4 4 4 4 4 3 2
-1 -2 -2 -1 -1 -1 -1 -0 -0 -1 0 1 1 2 4 6 4 3 4 3 3 3 5 4 3 3 3 3 4 4 5 4 3 3 3 3 4 4 3 3 3 3 3 2
-3 -3 -3 -2 -1 0 -1 -0 -0 0 -1 -2 -2 0 2 3 4 3 2 1 1 1 1 1 2 2 2 2 2 3 3 4 2 2 2 3 3 3 3 3 3 2 2 2
-4 -3 -3 -3 -3 -3 -3 -2 -1 -2 -2 -1 -1 -0 0 0 1 2 0 0 0 -0 -1 -1 -1 1 2 3 2 2 2 3 3 2 2 2 3 2 2 2 3 2 2 2
-4 -4 -4 -4 -4 -4 -4 -4 -4 -3 -3 -2 -2 -2 -2 -1 -1 -0 -1 -1 -1 -1 -1 -2 -2 -0 1 -1 -0 0 1 2 2 2 2 2 2 2 1 2 2 2 2 1
-6 -6 -6 -6 -4 -5 -6 -5 -4 -3 -4 -5 -5 -5 -4 -4 -4 -3 -3 -3 -3 -3 -3 -3 -3 -1 -1 -1 -1 -2 -1 -0 1 2 1 1 1 0 1 1 1 1 1 1
-8 -9 -8 -7 -7 -7 -7 -5 -5 -5 -4 -5 -5 -7 -6 -5 -4 -4 -4 -4 -4 -5 -5 -4 -4 -3 -3 -2 -1 -2 -2 -1 -1 0 1 0 0 -0 -0 0 0 0 0 -0
-8 -8 -9 -9 -8 -9 -6 -5 -5 -6 -6 -7 -9 -8 -8 -7 -6 -7 -7 -7 -6 -6 -7 -7 -7 -6 -5 -5 -4 -3 -3 -2 -1 -0 0 -0 -1 -1 -1 0 0 -0 -0 -1
-7 -8 -10 -9 -8 -8 -7 -6 -7 -7 -9 -9 -10 -11 -11 -11 -10 -10 -11 -10 -10 -10 -9 -8 -9 -9 -8 -7 -6 -5 -4 -3 -2 -2 -1 -0 -1 -1 -0 -0 -0 -1 -1 -1
-9 -10 -11 -10 -11 -12 -8 -7 -8 -10 -11 -11 -12 -13 -13 -13 -11 -9 -10 -10 -11 -11 -11 -11 -11 -10 -11 -10 -10 -8 -6 -4 -3 -3 -3 -2 -1 -1 -0 -0 0 -2 -2 -2
-10 -11 -11 -11 -12 -11 -10 -10 -10 -11 -11 -11 -13 -13 -14 -14 -14 -13 -12 -12 -12 -12 -12 -12 -12 -12 -11 -11 -10 -10 -8 -8 -6 -4 -4 -4 -3 -2 -2 -2 -2 -2 -2 -3
-12 -13 -13 -13 -13 -14 -11 -11 -12 -13 -13 -13 -14 -14 -15 -15 -14 -14 -14 -13 -13 -13 -13 -12 -12 -12 -11 -12 -11 -10 -9 -9 -9 -8 -7 -6 -5 -4 -3 -3 -3 -3 -3 -3
-14 -13 -13 -13 -13 -13 -12 -13 -13 -13 -13 -13 -14 -15 -15 -15 -15 -15 -16 -15 -15 -15 -15 -15 -14 -12 -12 -12 -12 -11 -9 -9 -10 -10 -10 -9 -7 -6 -5 -5 -5 -5 -5 -4
-14 -14 -14 -14 -14 -13 -14 -13 -13 -14 -14 -14 -15 -15 -15 -16 -16 -16 -16 -16 -16 -16 -16 -16 -15 -15 -14 -14 -13 -12 -12 -11 -10 -10 -9 -9 -8 -8 -8 -7 -7 -7 -6 -5
-14 -15 -14 -15 -14 -13 -13 -14 -14 -15 -15 -15 -15 -15 -16 -16 -16 -16 -16 -16 -16 -16 -16 -16 -16 -16 -15 -15 -14 -14 -13 -14 -13 -12 -9 -8 -9 -7 -7 -7 -8 -8 -8 -8
-15 -14 -15 -14 -14 -14 -15 -15 -15 -15 -15 -15 -16 -16 -16 -16 -16 -16 -16 -16 -17 -17 -17 -17 -16 -16 -16 -15 -15 -15 -14 -14 -14 -13 -12 -11 -10 -9 -8 -8 -9 -8 -9 -8

GFSCGP_700_temp_015.txt.gz
Temp
6 6 6 7 7 6 5 5 5 7 7 6 7 6 7 8 9 10 10 11 10 10 10 9 10 10 10 10 10 10 10 10 11 10 10 10 9 8 8 8 7 7 6 6
5 5 6 5 5 5 5 5 5 5 6 5 5 5 7 8 9 9 10 11 9 9 9 9 9 9 9 9 9 10 10 10 10 11 10 10 9 9 8 7 7 7 7 6
5 4 4 5 4 4 5 4 5 4 5 4 4 5 6 7 9 9 9 9 8 8 9 9 9 10 10 10 10 9 9 10 11 10 10 10 10 9 9 9 9 8 7 6
4 5 5 5 5 5 3 5 4 4 3 2 3 1 4 7 7 8 7 7 7 7 7 8 8 9 9 10 10 10 9 9 9 10 10 10 10 10 9 9 7 6 6 6
4 4 5 4 5 4 4 4 5 4 4 2 1 1 5 6 8 6 7 7 7 7 8 8 8 7 7 7 8 9 9 9 8 9 9 9 9 9 9 9 8 7 5 5
5 4 4 5 4 3 3 3 2 2 2 -1 4 3 4 7 8 7 7 7 7 7 6 6 5 6 6 7 8 8 9 8 8 8 8 8 8 8 8 8 8 7 6 5
4 4 4 4 3 3 3 2 1 -1 -3 -0 4 3 4 7 7 5 5 5 5 4 5 5 5 5 6 6 7 7 8 8 8 8 7 7 6 6 7 7 6 6 6 5
2 2 2 3 3 3 3 2 2 -3 -2 2 3 3 4 4 4 4 4 4 3 4 4 3 4 5 5 4 5 7 6 7 7 7 6 6 6 5 5 5 5 5 5 4
1 1 1 1 2 2 2 1 2 2 2 -1 2 2 4 4 3 3 3 3 4 4 3 3 3 3 4 5 4 4 3 3 5 5 5 5 4 5 5 4 4 3 3 3
-1 -1 -0 -0 1 0 1 1 0 -0 -3 -2 1 1 3 3 2 2 2 1 1 1 1 2 2 2 2 3 3 3 3 3 3 3 3 3 3 3 4 3 3 3 3 3
-1 -2 -1 -2 -1 -0 -0 -0 -1 0 -0 -3 -1 0 2 1 1 1 -0 -1 -1 -1 -1 -0 -1 -0 -0 1 2 1 2 2 2 3 2 3 3 2 2 3 3 3 2 2
-3 -2 -3 -2 -1 -2 -2 -1 -0 -2 -3 -3 -2 -2 1 -1 -2 -1 -1 -1 -2 -2 -2 -2 -2 -2 -1 -1 -0 -0 0 0 1 1 1 1 2 1 2 2 3 3 3 3
-3 -3 -3 -3 -1 -1 -3 -3 -3 -3 -3 -4 -4 -2 -2 -2 -2 -1 -1 -2 -2 -2 -2 -2 -2 -2 -2 -2 -2 -2 -1 -1 -1 -1 -1 -1 -0 0 0 1 1 1 2 2
-5 -4 -4 -4 -3 -3 -4 -4 -4 -4 -4 -4 -4 -4 -3 -4 -3 -3 -3 -2 -2 -3 -4 -4 -5 -4 -4 -4 -4 -4 -3 -2 -2 -2 -2 -2 -1 -1 -1 -1 -1 -0 0 1
-6 -6 -6 -5 -5 -5 -5 -5 -5 -5 -6 -7 -6 -7 -5 -5 -4 -3 -3 -4 -4 -4 -4 -5 -7 -7 -7 -7 -6 -6 -5 -5 -3 -3 -3 -3 -2 -2 -1 -2 -1 -1 -0 0
-7 -6 -6 -6 -6 -7 -8 -7 -6 -5 -6 -7 -7 -7 -6 -6 -6 -6 -6 -6 -6 -5 -5 -6 -7 -7 -7 -6 -6 -7 -7 -6 -5 -4 -4 -4 -4 -3 -4 -3 -2 -2 -2 -1
-8 -8 -8 -8 -7 -8 -9 -6 -7 -7 -6 -7 -8 -8 -8 -8 -8 -8 -8 -8 -8 -8 -8 -8 -8 -8 -9 -9 -9 -9 -9 -8 -8 -8 -6 -5 -5 -4 -4 -4 -4 -3 -3 -3
-9 -9 -10 -9 -9 -10 -8 -7 -8 -8 -8 -8 -9 -9 -10 -10 -10 -10 -10 -10 -10 -11 -11 -10 -10 -10 -10 -10 -11 -10 -11 -10 -9 -9 -8 -8 -7 -7 -7 -7 -7 -7 -6 -4
-8 -9 -10 -10 -10 -9 -9 -9 -8 -8 -9 -9 -10 -11 -12 -12 -12 -10 -12 -12 -12 -12 -12 -12 -12 -12 -11 -12 -13 -13 -13 -12 -13 -12 -11 -10 -10 -8 -8 -8 -8 -8 -8 -7
-9 -9 -12 -11 -12 -17 -9 -9 -10 -10 -11 -11 -13 -13 -13 -14 -13 -12 -13 -13 -13 -13 -13 -13 -13 -13 -13 -13 -13 -13 -14 -14 -14 -14 -13 -13 -12 -11 -9 -9 -8 -8 -7 -7
-11 -11 -12 -12 -12 -11 -11 -11 -11 -12 -12 -12 -13 -13 -14 -14 -14 -14 -14 -14 -14 -14 -14 -14 -14 -14 -14 -14 -14 -14 -14 -14 -15 -15 -15 -15 -15 -14 -13 -11 -10 -10 -9 -7
-13 -12 -12 -13 -13 -14 -11 -12 -13 -13 -13 -13 -13 -14 -14 -14 -14 -14 -14 -14 -15 -15 -15 -15 -15 -14 -14 -15 -15 -15 -15 -15 -15 -15 -15 -15 -16 -15 -15 -14 -13 -12 -11 -10
-14 -14 -13 -13 -13 -12 -13 -13 -13 -14 -14 -14 -14 -14 -15 -15 -15 -15 -15 -15 -15 -16 -16 -16 -16 -16 -15 -16 -16 -16 -16 -16 -16 -16 -16 -16 -16 -16 -16 -15 -15 -14 -13 -12
-14 -14 -15 -15 -14 -14 -14 -14 -14 -14 -14 -15 -15 -15 -15 -16 -15 -16 -16 -16 -16 -16 -16 -17 -17 -16 -16 -16 -17 -17 -17 -17 -17 -17 -17 -16 -16 -16 -16 -16 -15 -15 -14 -13
-14 -15 -15 -15 -15 -14 -14 -14 -14 -15 -15 -15 -15 -15 -16 -16 -16 -16 -16 -16 -16 -16 -17 -17 -17 -17 -17 -17 -17 -17 -17 -17 -17 -17 -17 -17 -17 -17 -17 -16 -16 -16 -15 -15
-13 -14 -15 -15 -14 -15 -14 -15 -15 -15 -15 -15 -16 -16 -16 -16 -16 -17 -17 -17 -17 -17 -17 -17 -17 -17 -17 -17 -17 -18 -18 -18 -17 -17 -17 -17 -17 -17 -17 -16 -16 -16 -15 -15

GFSCGP_700_temp_021.txt.gz
Temp
5 5 4 5 5 5 5 5 5 5 5 5 4 4 4 6 8 9 9 8 8 7 8 8 7 7 7 7 8 8 8 8 8 8 8 8 8 8 8 8 8 8 8 7
4 3 5 4 4 5 5 4 4 5 5 4 4 3 6 7 8 8 9 7 6 6 7 6 6 6 7 7 7 8 8 8 8 7 7 8 8 8 8 8 8 7 7 7
4 4 4 4 4 4 4 4 4 4 3 5 3 4 6 6 7 6 6 6 6 6 6 6 6 6 7 6 7 7 7 7 8 7 7 7 7 8 8 8 7 7 7 7
2 4 4 4 4 3 3 4 4 3 2 4 3 4 5 6 6 5 5 6 6 6 5 5 5 5 5 5 5 6 6 6 7 7 7 7 7 7 7 8 8 7 7 6
4 4 4 4 4 4 3 4 4 4 3 2 4 4 6 6 6 4 5 5 5 5 4 4 4 4 4 4 4 5 5 5 6 6 6 6 6 6 6 7 7 7 7 6
4 3 3 3 3 3 3 3 2 3 2 4 5 5 6 6 5 4 5 4 4 4 4 4 4 3 3 3 3 4 4 5 4 4 4 4 4 4 5 6 6 5 5 6
3 3 3 3 2 2 2 2 3 4 5 5 5 3 4 4 4 4 5 5 5 4 3 3 3 3 3 3 3 4 4 4 4 4 4 3 3 3 2 3 3 4 4 4
2 3 3 2 2 2 2 2 3 2 3 5 4 4 4 4 4 4 5 5 5 3 2 2 3 3 3 3 3 4 4 4 3 3 2 2 2 2 3 2 1 1 1 2
2 2 2 1 1 1 2 1 1 1 1 0 2 3 4 3 3 3 3 3 3 2 2 1 2 1 1 1 2 2 3 3 2 1 0 0 0 0 1 1 1 1 1 1
-1 -1 -0 -1 -0 -0 -0 -0 0 0 -1 0 2 3 3 4 2 2 2 1 0 1 1 0 -0 -1 -1 -1 -1 -0 0 0 1 1 1 -0 -0 -0 -1 -1 -0 -0 1 0
-2 -3 -1 -2 -1 -1 -1 -1 -1 -1 -1 -0 -0 2 2 2 1 1 1 0 -0 -1 -2 -2 -2 -2 -2 -1 -1 -1 -1 -1 -1 -0 -0 -1 -1 -1 -1 -2 -2 -2 -2 -1
-3 -3 -3 -2 -2 -2 -2 -2 -2 -2 -2 -2 -1 -2 -0 0 -1 -1 -2 -3 -3 -4 -4 -4 -4 -3 -3 -3 -2 -2 -2 -2 -2 -2 -2 -1 -1 -1 -2 -2 -2 -3 -3 -3
-4 -5 -5 -3 -2 -1 -2 -3 -3 -3 -4 -3 -3 -2 -2 -1 -1 -4 -4 -4 -4 -5 -6 -4 -4 -4 -4 -4 -4 -5 -4 -4 -4 -4 -3 -3 -3 -3 -3 -3 -3 -3 -4 -4
-5 -6 -5 -5 -3 -4 -5 -5 -4 -5 -5 -4 -4 -3 -2 -5 -5 -6 -6 -6 -5 -5 -5 -6 -6 -6 -6 -7 -7 -7 -7 -6 -6 -5 -5 -5 -5 -5 -4 -4 -4 -5 -5 -5
-7 -7 -6 -6 -6 -6 -6 -6 -5 -6 -6 -5 -5 -5 -4 -5 -6 -6 -6 -6 -7 -7 -7 -8 -8 -9 -9 -9 -9 -9 -9 -9 -8 -8 -7 -7 -7 -6 -6 -6 -6 -5 -6 -6
-8 -8 -8 -8 -7 -8 -8 -7 -7 -7 -7 -7 -7 -7 -6 -6 -6 -7 -7 -7 -7 -8 -9 -9 -10 -11 -11 -11 -10 -10 -10 -10 -10 -10 -10 -10 -10 -9 -8 -7 -7 -7 -7 -7
-10 -10 -9 -9 -9 -9 -9 -8 -8 -8 -7 -7 -7 -7 -7 -7 -8 -8 -8 -9 -9 -10 -11 -11 -11 -11 -11 -11 -12 -11 -12 -12 -12 -12 -13 -13 -13 -12 -12 -12 -12 -11 -9 -9
-9 -9 -11 -10 -10 -10 -8 -7 -8 -8 -8 -8 -8 -8 -9 -9 -9 -9 -10 -10 -11 -11 -11 -12 -12 -12 -12 -12 -12 -12 -13 -13 -13 -13 -13 -14 -14 -14 -14 -14 -14 -14 -14 -13
-9 -10 -11 -11 -10 -9 -9 -9 -9 -9 -9 -9 -10 -10 -11 -11 -12 -11 -12 -13 -12 -12 -12 -12 -12 -12 -12 -13 -13 -13 -13 -13 -14 -14 -14 -14 -14 -14 -14 -15 -15 -15 -15 -14
-10 -10 -12 -11 -11 -10 -10 -10 -10 -10 -11 -10 -10 -11 -12 -13 -13 -12 -13 -13 -13 -13 -13 -13 -13 -14 -13 -14 -14 -14 -14 -14 -15 -15 -15 -15 -15 -15 -15 -15 -15 -15 -16 -16
-11 -12 -12 -12 -12 -11 -11 -11 -11 -12 -11 -11 -12 -13 -13 -13 -13 -13 -13 -13 -14 -14 -14 -14 -14 -14 -14 -15 -15 -15 -15 -15 -16 -16 -16 -16 -16 -16 -16 -16 -16 -16 -16 -16
-12 -12 -12 -13 -13 -12 -12 -12 -12 -12 -12 -12 -12 -13 -14 -14 -14 -14 -14 -15 -15 -15 -15 -14 -15 -15 -15 -15 -16 -16 -16 -16 -16 -17 -16 -16 -16 -16 -16 -16 -16 -16 -16 -16
-14 -12 -13 -13 -12 -12 -12 -13 -13 -13 -13 -13 -14 -14 -14 -15 -15 -15 -15 -15 -15 -15 -15 -15 -15 -15 -16 -16 -16 -17 -17 -17 -17 -17 -17 -17 -17 -17 -17 -17 -17 -17 -17 -17
-13 -12 -14 -14 -13 -12 -13 -13 -13 -13 -14 -14 -14 -14 -15 -15 -15 -15 -15 -15 -15 -15 -15 -15 -16 -16 -16 -17 -17 -17 -17 -17 -17 -17 -17 -17 -18 -18 -18 -18 -18 -18 -17 -17
-12 -13 -13 -14 -13 -13 -13 -13 -13 -14 -14 -14 -14 -15 -15 -16 -16 -16 -16 -16 -16 -16 -16 -16 -16 -16 -17 -17 -17 -18 -18 -18 -17 -18 -18 -18 -18 -19 -19 -20 -20 -20 -20 -20
-12 -12 -14 -14 -13 -14 -14 -14 -14 -15 -15 -15 -15 -15 -16 -16 -16 -16 -16 -16 -16 -16 -16 -16 -17 -17 -17 -17 -18 -18 -18 -18 -18 -19 -19 -20 -20 -21 -21 -21 -21 -22 -22 -23

GFSCGP_700_temp_024.txt.gz
Temp
5 5 5 6 6 5 5 5 5 5 5 5 4 5 5 6 8 9 7 6 6 6 8 7 6 6 7 7 7 7 7 7 7 7 8 8 8 8 8 7 7 7 7 7
4 4 5 4 4 4 5 5 5 4 4 4 5 5 6 6 7 8 7 5 6 7 7 5 5 5 6 6 6 6 6 7 7 7 7 7 7 7 7 7 7 7 7 7
4 4 4 3 3 4 4 3 3 3 4 4 4 4 5 6 7 6 5 6 6 5 5 5 5 5 5 5 5 5 5 6 6 6 7 7 7 6 6 6 7 7 6 6
2 3 3 4 4 3 3 4 4 3 3 3 4 3 4 6 5 4 5 6 6 5 4 4 4 4 4 5 5 5 5 5 5 6 6 6 6 6 6 5 5 5 6 6
3 3 4 3 3 3 3 3 3 3 3 2 2 3 5 6 5 5 6 5 4 4 4 4 4 4 3 3 4 4 4 4 4 4 4 4 5 5 5 4 4 5 5 5
4 3 3 3 3 3 2 2 2 3 2 0 4 5 5 6 5 5 5 4 4 4 4 4 3 3 3 3 3 3 3 3 3 3 3 3 3 4 3 3 3 3 3 3
3 3 3 3 3 2 2 2 2 0 -1 -0 4 3 4 4 5 4 4 4 4 4 3 3 2 1 1 1 2 2 2 2 2 1 1 2 2 3 3 3 2 2 2 2
2 2 3 2 2 2 1 1 2 -2 -2 0 2 2 3 4 4 4 4 3 3 2 2 1 1 1 0 -0 -0 -0 0 -0 -0 -1 -0 -1 0 1 2 2 2 2 1 1
2 2 2 2 1 1 1 1 1 1 1 -1 1 2 2 3 2 3 3 3 3 1 -1 -1 -1 -0 -1 -2 -2 -2 -2 -1 -1 -1 -1 -1 -0 -0 -0 0 0 -0 0 0
0 -0 0 1 0 -0 -0 0 -0 -0 -2 -4 1 1 2 2 1 1 2 2 0 -0 -1 -2 -2 -2 -3 -4 -4 -4 -4 -3 -2 -2 -1 -1 -0 -1 -1 -0 -1 -1 -1 -1
-2 -2 -1 -1 -1 -1 -1 -1 -1 -1 -1 -3 -2 -0 1 0 -0 -1 -1 -1 -1 -2 -3 -3 -4 -4 -4 -4 -5 -5 -4 -4 -3 -3 -2 -2 -2 -2 -1 -1 -2 -2 -2 -3
-3 -3 -3 -2 -1 -2 -2 -2 -2 -2 -2 -2 -2 -2 -1 -1 -2 -2 -3 -3 -3 -3 -5 -5 -5 -6 -6 -5 -4 -4 -4 -3 -4 -3 -3 -2 -2 -3 -3 -3 -3 -3 -3 -4
-3 -4 -5 -3 -2 -2 -2 -4 -3 -4 -4 -4 -4 -3 -2 -2 -3 -3 -5 -4 -5 -5 -6 -6 -5 -6 -6 -6 -6 -6 -6 -6 -6 -6 -6 -6 -5 -5 -5 -5 -5 -6 -5 -5
-5 -5 -5 -5 -3 -3 -4 -3 -3 -5 -6 -5 -5 -5 -3 -3 -4 -5 -5 -5 -5 -6 -7 -7 -7 -7 -8 -8 -9 -9 -9 -8 -8 -8 -8 -8 -8 -7 -7 -7 -7 -7 -7 -6
-6 -6 -6 -6 -6 -6 -6 -6 -5 -6 -6 -7 -6 -6 -6 -5 -6 -6 -6 -6 -6 -6 -7 -8 -8 -9 -10 -10 -10 -10 -11 -11 -10 -10 -10 -10 -10 -9 -9 -9 -9 -9 -8 -8
-8 -7 -8 -7 -7 -8 -8 -6 -7 -7 -7 -8 -7 -7 -7 -7 -7 -7 -7 -7 -7 -7 -8 -9 -10 -10 -11 -11 -11 -11 -11 -11 -12 -12 -12 -12 -12 -12 -11 -11 -11 -11 -11 -10
-8 -8 -9 -9 -9 -9 -10 -6 -7 -7 -7 -7 -8 -8 -8 -8 -8 -8 -8 -8 -8 -9 -9 -10 -12 -12 -12 -13 -13 -13 -13 -13 -14 -13 -13 -14 -14 -14 -14 -14 -14 -13 -13 -12
-8 -9 -10 -10 -10 -13 -7 -7 -8 -8 -8 -8 -8 -8 -8 -8 -8 -9 -9 -10 -10 -10 -10 -11 -12 -13 -13 -13 -13 -13 -14 -14 -14 -14 -14 -14 -14 -14 -14 -14 -14 -14 -14 -14
-8 -10 -11 -11 -10 -9 -8 -7 -8 -9 -8 -9 -9 -9 -10 -10 -10 -10 -11 -12 -13 -12 -13 -13 -12 -12 -13 -14 -14 -14 -14 -15 -15 -15 -15 -15 -15 -15 -15 -15 -15 -15 -16 -16
-9 -10 -12 -11 -12 -16 -9 -9 -10 -10 -11 -10 -10 -11 -11 -11 -12 -11 -12 -12 -13 -13 -13 -13 -13 -13 -14 -14 -14 -14 -15 -15 -15 -15 -15 -16 -16 -16 -16 -16 -16 -16 -16 -16
-10 -11 -11 -11 -12 -11 -11 -11 -11 -11 -11 -11 -12 -12 -12 -12 -13 -12 -13 -13 -13 -13 -14 -13 -14 -14 -15 -15 -15 -15 -15 -15 -16 -16 -16 -16 -16 -17 -16 -16 -16 -17 -17 -17
-11 -11 -11 -12 -13 -13 -12 -12 -12 -11 -12 -12 -12 -13 -13 -14 -13 -14 -13 -14 -14 -15 -15 -15 -15 -15 -15 -15 -15 -15 -15 -16 -16 -16 -16 -16 -17 -17 -17 -17 -17 -17 -17 -17
-12 -10 -10 -11 -12 -12 -12 -12 -12 -12 -12 -13 -13 -13 -14 -14 -14 -14 -15 -15 -15 -15 -15 -15 -15 -15 -15 -15 -16 -16 -16 -16 -16 -16 -17 -17 -17 -18 -18 -17 -17 -17 -18 -18
-12 -11 -12 -13 -12 -12 -12 -12 -13 -13 -13 -13 -14 -14 -14 -14 -14 -15 -15 -15 -16 -16 -16 -15 -16 -15 -16 -16 -16 -16 -16 -16 -17 -17 -17 -18 -18 -18 -18 -18 -19 -19 -19 -19
-12 -12 -12 -13 -13 -12 -12 -12 -13 -14 -14 -14 -15 -15 -15 -15 -15 -15 -16 -16 -16 -16 -16 -16 -16 -16 -16 -16 -16 -16 -17 -17 -17 -17 -18 -18 -18 -18 -18 -19 -19 -19 -20 -20
-12 -12 -12 -13 -12 -12 -13 -13 -14 -14 -15 -15 -15 -15 -15 -15 -15 -16 -16 -16 -16 -16 -16 -16 -16 -16 -16 -17 -16 -17 -17 -17 -18 -18 -18 -18 -18 -19 -19 -19 -18 -20 -21 -21

GFSCGP_700_temp_027.txt.gz
Temp
5 5 5 6 5 5 5 4 4 5 5 5 5 5 6 6 7 7 6 7 8 7 6 6 6 5 6 6 6 6 6 6 6 6 7 7 7 7 7 7 7 7 6 7
4 4 5 4 4 4 4 4 4 4 4 4 5 5 6 7 6 6 6 7 6 5 5 5 5 4 5 5 5 5 5 6 6 6 6 7 7 7 6 6 6 6 6 6
4 4 4 4 3 4 4 4 4 3 4 4 4 4 5 6 5 5 5 6 5 5 5 5 4 4 4 4 4 5 5 5 5 5 6 6 6 6 6 6 5 5 5 5
2 3 3 3 3 3 3 4 3 3 3 3 3 2 3 5 4 4 5 5 5 5 5 4 4 4 3 3 4 4 4 4 4 4 5 5 5 5 4 4 4 4 4 4
3 3 3 4 4 3 4 4 3 3 3 2 2 2 4 5 5 5 5 5 5 5 4 3 3 3 3 3 3 3 3 3 3 3 3 3 3 3 3 3 3 2 3 3
3 3 3 3 3 3 3 2 2 2 2 -1 2 2 4 5 4 5 5 5 5 4 3 3 3 2 2 1 1 1 1 1 2 2 1 1 1 1 1 2 2 2 1 2
3 3 3 3 3 2 2 1 1 -1 -3 -2 3 3 4 4 4 4 4 4 4 3 3 2 2 1 1 0 -0 -0 -0 -1 -1 -1 -1 -1 -1 -1 -0 -0 -0 -0 -0 0
2 3 3 2 2 2 2 1 1 -4 -3 -2 2 1 3 3 3 2 2 2 3 3 2 1 1 -0 -0 -1 -1 -1 -1 -2 -2 -2 -3 -3 -2 -2 -1 -1 -0 -0 -0 -0
1 2 2 2 1 1 1 1 1 1 1 -2 1 1 1 2 1 1 1 1 1 1 0 -1 -1 -1 -2 -2 -2 -3 -4 -3 -3 -4 -4 -4 -4 -3 -2 -1 -1 -1 -1 -1
1 1 1 1 1 0 0 0 -0 -0 -5 -6 -1 0 1 0 1 0 -0 -1 -1 -1 -2 -2 -2 -2 -2 -2 -2 -3 -4 -5 -5 -5 -5 -5 -4 -4 -3 -3 -2 -2 -3 -3
0 0 0 -0 -1 -1 -1 -1 -1 -1 -1 -5 -5 -1 0 -0 -1 -2 -2 -3 -3 -4 -3 -3 -3 -3 -4 -5 -4 -5 -5 -5 -5 -5 -5 -5 -5 -5 -5 -5 -5 -4 -4 -5
-1 -1 -2 -1 -1 -1 -1 -2 -2 -3 -2 -2 -2 -2 -1 -1 -3 -3 -4 -4 -4 -5 -5 -4 -4 -4 -5 -5 -6 -7 -7 -7 -7 -7 -8 -8 -8 -8 -8 -8 -8 -8 -7 -7
-2 -3 -3 -2 -2 -2 -2 -2 -4 -4 -4 -4 -4 -3 -2 -3 -3 -3 -4 -4 -5 -5 -6 -6 -7 -7 -7 -7 -8 -8 -8 -9 -9 -9 -9 -10 -9 -9 -9 -9 -9 -9 -9 -8
-3 -3 -3 -3 -3 -4 -4 -4 -4 -5 -6 -6 -5 -4 -2 -3 -3 -4 -5 -5 -6 -6 -7 -7 -7 -8 -9 -9 -10 -10 -10 -11 -11 -11 -11 -10 -10 -10 -10 -10 -9 -9 -9 -9
-4 -5 -5 -4 -5 -5 -5 -4 -4 -5 -5 -7 -4 -5 -4 -5 -6 -7 -7 -7 -7 -7 -8 -8 -8 -8 -9 -10 -11 -12 -12 -12 -11 -11 -11 -11 -11 -11 -10 -10 -11 -11 -11 -11
-5 -6 -6 -5 -6 -6 -7 -5 -6 -6 -6 -7 -6 -7 -6 -7 -8 -8 -8 -8 -8 -8 -9 -9 -9 -10 -11 -12 -11 -11 -12 -12 -12 -12 -13 -13 -13 -13 -13 -13 -13 -13 -12 -12
-6 -7 -7 -8 -8 -8 -9 -4 -5 -6 -6 -7 -8 -8 -9 -8 -8 -8 -9 -9 -9 -9 -9 -10 -11 -11 -12 -12 -13 -13 -13 -13 -13 -14 -14 -14 -14 -14 -14 -14 -14 -14 -14 -14
-7 -8 -9 -9 -10 -13 -7 -6 -7 -7 -7 -8 -9 -9 -8 -8 -8 -9 -9 -10 -10 -10 -11 -11 -12 -12 -13 -13 -13 -13 -14 -14 -14 -14 -14 -14 -15 -15 -15 -15 -15 -15 -15 -14
-7 -8 -10 -10 -11 -9 -7 -7 -8 -8 -8 -8 -9 -9 -10 -10 -10 -10 -11 -11 -12 -12 -13 -13 -13 -13 -13 -13 -14 -14 -14 -14 -15 -15 -15 -15 -15 -15 -15 -15 -15 -15 -15 -15
-7 -9 -11 -11 -12 -15 -8 -8 -9 -10 -11 -9 -10 -11 -11 -11 -12 -11 -12 -12 -12 -13 -13 -13 -13 -13 -14 -14 -14 -14 -15 -15 -15 -15 -15 -15 -16 -16 -16 -16 -16 -16 -16 -16
-9 -11 -11 -12 -12 -11 -10 -10 -10 -11 -10 -11 -11 -12 -12 -12 -12 -12 -13 -13 -13 -13 -13 -14 -14 -15 -15 -15 -15 -15 -15 -15 -15 -15 -15 -16 -16 -16 -16 -17 -17 -17 -16 -16
-9 -10 -11 -13 -13 -13 -11 -11 -11 -11 -12 -12 -12 -12 -12 -12 -13 -13 -13 -13 -14 -14 -14 -15 -15 -15 -15 -16 -16 -16 -16 -16 -16 -16 -16 -16 -16 -17 -17 -17 -17 -17 -17 -17
-11 -10 -9 -10 -10 -10 -11 -11 -11 -12 -12 -12 -13 -13 -13 -14 -14 -14 -14 -14 -14 -14 -15 -15 -16 -16 -16 -16 -16 -16 -16 -16 -16 -16 -16 -16 -17 -17 -17 -17 -17 -17 -17 -17
-11 -11 -12 -11 -11 -11 -12 -12 -12 -12 -12 -13 -13 -14 -14 -14 -15 -15 -14 -14 -14 -15 -16 -16 -16 -16 -16 -16 -16 -16 -16 -16 -16 -16 -17 -17 -17 -17 -17 -17 -17 -18 -19 -18
-12 -12 -12 -13 -13 -12 -12 -12 -12 -13 -13 -13 -14 -14 -14 -15 -15 -15 -15 -15 -15 -15 -16 -16 -16 -16 -16 -17 -17 -17 -17 -16 -16 -17 -17 -17 -17 -17 -17 -17 -17 -19 -20 -19
-11 -12 -12 -12 -12 -13 -13 -12 -13 -13 -13 -14 -14 -14 -15 -15 -15 -15 -15 -15 -16 -16 -16 -17 -16 -17 -17 -17 -17 -17 -17 -17 -17 -17 -17 -17 -18 -17 -17 -17 -17 -20 -21 -21

GFSCGP_700_temp_030.txt.gz
Temp
5 4 6 6 5 5 5 5 5 5 5 4 5 5 6 6 6 6 7 7 6 6 6 6 5 5 5 5 6 6 6 6 6 6 6 6 6 6 6 6 6 6 6 6
4 4 5 5 5 5 4 4 4 4 4 3 4 5 6 6 6 6 6 6 6 5 5 5 4 4 4 4 5 5 5 5 5 5 5 6 6 6 6 5 5 5 5 5
4 4 4 4 4 4 4 3 4 3 4 4 4 4 5 6 5 6 5 5 5 5 5 4 3 3 4 4 4 4 4 4 4 4 4 4 5 5 5 5 5 5 5 5
2 4 3 3 2 3 3 4 4 4 3 3 3 2 3 4 5 5 5 5 4 4 4 3 3 3 3 3 3 3 3 3 3 3 3 3 3 3 3 3 3 4 4 4
3 3 3 3 4 3 4 4 4 3 3 2 2 1 3 5 5 4 5 5 5 4 3 3 3 2 2 2 2 2 2 2 2 2 2 2 2 2 2 2 2 2 2 2
2 3 3 3 3 3 3 3 3 2 2 -1 2 2 3 3 4 4 4 5 4 3 3 2 2 2 2 2 1 1 1 1 1 1 1 0 -1 -1 -1 -0 -0 0 0 0
3 3 3 3 3 3 2 2 1 -2 -3 -2 1 1 3 3 3 3 3 4 3 3 2 2 2 2 1 1 1 0 -0 -0 -1 -1 -1 -1 -2 -2 -3 -2 -2 -1 -1 -1
3 2 3 3 2 2 2 2 2 -3 -4 -2 1 1 3 3 2 2 2 2 2 2 2 1 1 0 -0 -0 -1 -2 -2 -2 -2 -1 -2 -2 -2 -3 -3 -3 -3 -3 -2 -2
2 2 2 3 2 2 1 1 1 1 0 -3 1 1 1 1 1 1 0 0 0 -0 -1 -1 -1 -1 -2 -2 -3 -2 -2 -2 -3 -3 -3 -4 -4 -3 -4 -4 -4 -3 -2 -3
1 1 1 1 1 1 1 1 -0 -0 -5 -6 -2 -1 1 0 0 -1 -1 -2 -2 -2 -2 -3 -3 -3 -4 -4 -4 -4 -4 -4 -4 -4 -4 -5 -5 -5 -5 -6 -5 -5 -4 -4
1 1 0 -0 0 1 0 -0 -1 -0 -0 -6 -7 -1 -0 -0 -1 -2 -2 -2 -2 -3 -3 -4 -4 -4 -5 -5 -5 -5 -5 -5 -6 -6 -7 -7 -7 -7 -8 -8 -8 -8 -8 -7
1 0 -0 -0 -1 -1 -1 -1 -1 -2 -2 -2 -2 -1 -2 -1 -2 -2 -3 -3 -4 -5 -5 -5 -5 -6 -6 -7 -7 -8 -8 -8 -8 -8 -8 -8 -8 -8 -9 -9 -9 -9 -9 -9
-1 -1 -2 -2 -2 -2 -2 -2 -2 -3 -3 -3 -4 -3 -2 -2 -3 -3 -3 -4 -4 -4 -5 -5 -6 -7 -8 -8 -8 -9 -9 -9 -10 -10 -10 -9 -9 -9 -9 -9 -10 -10 -9 -9
-2 -2 -2 -2 -1 -2 -3 -3 -4 -5 -5 -5 -4 -4 -3 -3 -3 -3 -4 -4 -5 -5 -6 -7 -8 -8 -8 -9 -9 -10 -10 -10 -11 -11 -11 -11 -11 -11 -11 -11 -11 -10 -10 -10
-3 -3 -3 -3 -3 -3 -3 -3 -4 -4 -5 -6 -4 -5 -3 -3 -3 -4 -4 -5 -5 -6 -7 -8 -8 -9 -9 -10 -10 -11 -12 -12 -12 -12 -12 -12 -12 -12 -12 -13 -13 -13 -13 -12
-4 -4 -4 -5 -5 -5 -5 -4 -5 -5 -5 -5 -5 -4 -3 -4 -5 -5 -6 -7 -7 -8 -9 -9 -9 -10 -10 -11 -12 -12 -13 -13 -13 -13 -13 -13 -13 -14 -14 -14 -14 -14 -14 -14
-5 -5 -5 -6 -6 -7 -7 -5 -5 -4 -5 -5 -7 -5 -6 -6 -7 -8 -8 -9 -9 -9 -9 -10 -11 -11 -12 -12 -13 -13 -13 -13 -13 -14 -14 -14 -14 -14 -14 -14 -14 -14 -14 -14
-6 -6 -7 -7 -8 -13 -6 -5 -5 -6 -5 -6 -6 -7 -7 -8 -9 -9 -9 -10 -10 -11 -11 -11 -12 -12 -12 -13 -13 -14 -14 -14 -14 -14 -15 -15 -15 -15 -15 -15 -15 -15 -14 -14
-7 -7 -8 -8 -9 -8 -6 -6 -6 -6 -6 -7 -8 -8 -9 -9 -10 -10 -10 -11 -11 -12 -12 -13 -13 -13 -13 -13 -14 -14 -15 -15 -15 -15 -15 -15 -15 -15 -15 -15 -15 -15 -15 -15
-8 -8 -9 -9 -11 -14 -6 -7 -7 -8 -8 -8 -9 -9 -10 -10 -11 -10 -12 -12 -12 -13 -13 -13 -13 -13 -13 -14 -15 -15 -15 -15 -15 -15 -15 -16 -16 -16 -15 -15 -15 -15 -16 -16
-8 -9 -10 -10 -11 -10 -8 -9 -9 -10 -9 -9 -10 -11 -11 -11 -11 -12 -12 -12 -13 -13 -13 -13 -13 -14 -14 -15 -15 -15 -15 -16 -16 -16 -16 -16 -16 -16 -15 -15 -16 -16 -16 -16
-8 -9 -10 -13 -13 -13 -8 -10 -10 -8 -10 -11 -11 -11 -12 -12 -12 -13 -13 -13 -14 -14 -14 -14 -14 -14 -15 -15 -16 -16 -16 -16 -16 -16 -16 -16 -16 -16 -16 -16 -17 -17 -17 -16
-9 -8 -9 -10 -9 -9 -10 -10 -10 -11 -11 -11 -12 -12 -13 -13 -13 -13 -13 -13 -14 -14 -14 -14 -14 -15 -15 -16 -16 -16 -16 -16 -16 -16 -17 -16 -16 -16 -16 -17 -17 -17 -17 -16
-9 -10 -10 -10 -10 -10 -11 -11 -12 -12 -12 -12 -13 -13 -13 -13 -13 -13 -14 -14 -14 -15 -14 -15 -15 -15 -15 -16 -17 -17 -17 -16 -17 -17 -17 -17 -16 -16 -17 -17 -17 -17 -17 -17
-10 -11 -10 -12 -12 -11 -11 -12 -12 -13 -13 -13 -13 -13 -13 -14 -14 -14 -14 -14 -15 -15 -15 -15 -15 -15 -16 -16 -17 -17 -17 -17 -17 -17 -17 -17 -17 -17 -17 -17 -18 -18 -18 -17
-10 -10 -11 -11 -11 -12 -12 -12 -13 -13 -13 -13 -13 -14 -14 -14 -14 -14 -14 -15 -15 -15 -15 -15 -16 -16 -17 -17 -17 -17 -17 -17 -17 -17 -17 -17 -17 -17 -17 -18 -18 -18 -18 -18

GFSCGP_700_temp_036.txt.gz
Temp
6 5 6 7 5 5 5 5 5 6 5 4 5 4 5 6 6 6 6 7 7 6 6 6 5 5 5 5 5 5 5 5 5 5 5 5 4 4 4 4 4 4 3 3
5 5 6 5 5 4 4 4 5 5 5 4 4 4 5 5 6 6 7 7 6 6 5 5 4 4 4 4 4 4 4 4 4 4 4 4 4 4 4 3 3 3 3 3
4 4 4 4 4 4 4 4 4 4 4 3 3 4 5 6 6 6 6 6 5 5 4 4 3 3 3 3 3 3 3 4 4 4 3 3 3 3 3 3 3 3 2 2
3 3 3 4 4 4 3 3 3 3 2 2 2 2 5 5 6 6 6 5 5 4 4 3 3 3 2 2 2 2 2 2 2 3 2 2 2 1 1 1 1 2 2 1
3 3 3 4 5 3 2 3 2 3 2 2 2 2 3 4 6 6 5 4 4 4 3 3 2 2 1 1 1 1 1 1 1 1 1 1 1 1 1 0 -0 -0 -1 -1
1 1 2 3 3 2 2 2 2 2 2 -2 3 3 2 4 5 5 5 4 4 4 3 3 2 2 1 1 0 0 -0 -1 -1 -0 -0 -1 -1 -1 -1 -1 -1 -1 -1 -1
1 1 2 2 3 2 2 2 1 -1 -3 -2 1 1 4 4 4 5 4 4 3 3 2 3 2 1 0 -0 -0 -1 -1 -1 -1 -1 -2 -2 -2 -1 -1 -1 -2 -2 -2 -2
1 1 2 2 3 3 2 2 3 -3 -4 -3 -0 -0 3 3 4 4 3 3 2 2 2 1 -0 -1 -1 -2 -2 -2 -2 -1 -1 -2 -2 -2 -1 -1 -1 -1 -2 -3 -3 -4
2 3 4 3 3 2 1 1 3 2 -1 -4 1 1 2 2 3 4 3 3 2 2 0 -1 -1 -2 -2 -2 -2 -2 -2 -2 -2 -2 -2 -2 -2 -2 -2 -3 -3 -3 -5 -6
3 2 3 2 2 2 2 2 1 0 -4 -7 -2 -0 2 2 2 2 3 2 2 1 -1 -1 -2 -2 -2 -3 -3 -3 -3 -3 -3 -3 -3 -3 -3 -4 -4 -5 -6 -6 -7 -7
2 2 1 2 1 2 1 0 1 1 1 -5 -6 -0 1 1 1 1 1 1 0 -1 -2 -2 -3 -3 -4 -4 -4 -3 -3 -3 -4 -4 -5 -5 -6 -7 -8 -8 -9 -9 -9 -9
2 1 1 1 2 1 1 1 2 1 -1 -1 -2 -0 -0 0 -0 0 0 -0 -1 -2 -2 -3 -4 -4 -4 -4 -4 -4 -5 -5 -6 -7 -8 -9 -9 -10 -10 -10 -10 -11 -11 -11
1 0 0 -1 -1 -1 0 0 0 0 0 -0 -3 -1 -1 -1 -1 -1 -1 -1 -2 -2 -3 -4 -4 -4 -5 -5 -5 -6 -7 -8 -9 -9 -10 -10 -10 -11 -11 -11 -11 -11 -11 -12
0 1 1 -0 1 0 -1 -0 -0 -1 -1 -1 -1 -1 -1 -2 -2 -2 -2 -3 -3 -4 -4 -4 -4 -5 -6 -6 -7 -8 -8 -9 -9 -10 -10 -11 -11 -12 -12 -12 -12 -12 -12 -13
-2 -1 -0 -1 -1 -1 -1 -1 -1 -1 -1 -2 -2 -2 -2 -2 -2 -3 -4 -4 -5 -5 -4 -5 -5 -6 -6 -7 -8 -9 -9 -10 -11 -11 -12 -12 -12 -12 -13 -13 -13 -13 -13 -14
-3 -3 -2 -2 -2 -2 -2 -2 -2 -3 -3 -3 -3 -3 -3 -3 -3 -3 -4 -5 -5 -5 -5 -6 -6 -7 -7 -8 -9 -10 -10 -11 -12 -12 -12 -13 -13 -13 -13 -13 -14 -14 -14 -14
-3 -3 -4 -4 -3 -4 -4 -3 -3 -3 -3 -3 -4 -3 -3 -4 -4 -5 -5 -5 -5 -6 -6 -7 -7 -8 -8 -9 -10 -11 -12 -12 -13 -13 -13 -13 -13 -14 -14 -14 -15 -15 -15 -15
-5 -5 -5 -5 -5 -7 -3 -2 -3 -3 -3 -4 -4 -4 -4 -5 -5 -5 -5 -5 -6 -6 -7 -7 -8 -8 -9 -10 -11 -12 -13 -13 -13 -13 -14 -14 -15 -15 -15 -15 -15 -16 -16 -16
-5 -5 -5 -5 -7 -4 -3 -4 -4 -4 -4 -5 -5 -5 -5 -6 -6 -6 -6 -7 -7 -7 -8 -9 -9 -9 -10 -11 -12 -13 -13 -13 -14 -14 -14 -15 -15 -15 -16 -16 -16 -16 -16 -16
-6 -5 -6 -7 -8 -8 -4 -4 -4 -5 -5 -5 -5 -6 -6 -6 -7 -6 -8 -8 -8 -9 -9 -10 -10 -11 -12 -12 -13 -13 -13 -14 -14 -14 -15 -15 -16 -16 -16 -16 -16 -17 -17 -17
-6 -7 -6 -6 -7 -6 -5 -5 -6 -7 -6 -6 -7 -7 -8 -8 -8 -9 -9 -9 -9 -10 -11 -11 -11 -12 -12 -13 -13 -13 -14 -14 -15 -15 -15 -16 -16 -17 -17 -17 -17 -17 -17 -17
-5 -7 -7 -8 -8 -8 -7 -7 -7 -7 -8 -8 -7 -8 -9 -9 -10 -10 -10 -10 -11 -11 -12 -12 -12 -12 -13 -13 -13 -14 -14 -15 -15 -15 -16 -16 -17 -17 -17 -17 -17 -17 -18 -17
-7 -6 -6 -7 -6 -6 -7 -8 -8 -8 -8 -8 -9 -9 -10 -10 -10 -10 -11 -11 -12 -12 -13 -13 -13 -13 -13 -14 -14 -14 -15 -15 -15 -16 -16 -17 -17 -18 -18 -18 -18 -18 -18 -18
-7 -7 -7 -7 -7 -8 -8 -9 -9 -9 -9 -9 -10 -10 -11 -11 -11 -11 -11 -12 -12 -13 -13 -14 -14 -14 -14 -14 -15 -15 -15 -15 -16 -16 -16 -17 -17 -18 -18 -18 -18 -18 -18 -18
-7 -7 -7 -8 -8 -9 -9 -9 -10 -10 -10 -10 -10 -11 -11 -12 -12 -12 -12 -13 -13 -13 -14 -14 -14 -14 -15 -15 -15 -15 -15 -16 -16 -16 -17 -17 -17 -18 -18 -18 -18 -18 -18 -18
-7 -7 -8 -9 -9 -10 -10 -11 -11 -11 -11 -11 -11 -11 -11 -12 -12 -12 -13 -13 -13 -13 -14 -14 -14 -15 -15 -15 -15 -16 -16 -16 -17 -17 -17 -18 -18 -18 -18 -18 -18 -19 -19 -19

GFSCGP_700_temp_042.txt.gz
Temp
6 6 7 8 7 6 6 5 6 6 6 5 5 6 5 5 5 5 5 5 5 5 6 6 6 6 5 5 5 5 5 5 5 5 4 4 4 3 3 3 3 3 2 2
6 6 7 6 6 5 5 5 5 6 5 4 4 4 5 5 5 5 5 5 5 6 6 5 5 5 4 4 4 4 4 4 4 4 4 3 3 2 2 2 2 2 2 2
6 6 6 6 6 5 5 5 5 5 5 4 3 3 5 5 6 6 5 6 6 6 6 5 4 4 4 4 4 4 4 3 3 3 3 3 2 2 1 1 1 1 1 1
4 4 5 5 4 5 4 5 4 4 3 3 2 5 5 6 6 6 6 6 6 6 6 5 4 4 3 3 3 3 3 3 3 3 2 2 2 2 1 0 0 0 0 0
4 5 5 4 5 4 3 3 3 3 2 1 1 2 4 5 6 7 7 6 6 5 5 4 4 3 2 2 2 2 2 2 2 1 1 1 1 1 0 -0 0 -0 -0 -1
3 3 3 3 3 3 3 2 2 1 1 1 2 2 5 6 7 6 6 6 5 5 4 3 3 2 2 1 1 1 1 1 1 1 0 -0 -0 -1 -1 -1 -1 -1 -1 -2
2 3 2 2 2 2 2 1 2 1 1 2 2 -0 4 5 6 7 6 6 6 5 4 3 2 2 1 1 0 0 0 0 -0 -0 -1 -1 -1 -1 -1 -2 -2 -2 -2 -2
2 2 5 4 3 2 1 1 3 2 2 3 0 0 4 5 5 6 6 6 6 5 4 3 2 1 0 -0 -0 -0 -1 -1 -1 -1 -1 -1 -1 -2 -2 -2 -3 -3 -3 -3
3 2 4 4 2 1 -0 -0 1 1 -0 -0 2 2 4 5 5 5 5 5 5 5 4 3 2 1 0 -0 -1 -1 -1 -1 -1 -1 -1 -1 -2 -2 -3 -3 -3 -3 -4 -4
3 2 3 2 1 -0 0 1 -0 0 1 2 2 0 4 4 4 4 4 4 4 4 3 3 2 1 -0 -1 -1 -2 -2 -2 -2 -2 -3 -3 -3 -3 -4 -4 -4 -4 -5 -5
3 1 1 1 0 2 0 -0 1 1 2 2 3 3 4 4 4 4 3 3 3 3 3 2 1 0 -0 -0 -2 -2 -3 -3 -3 -3 -3 -4 -4 -4 -5 -5 -6 -6 -7 -8
3 -1 0 2 2 2 0 0 1 2 -1 1 2 3 3 3 3 3 3 2 2 2 1 1 0 -0 -0 -2 -2 -3 -3 -3 -3 -4 -4 -5 -5 -6 -7 -7 -8 -9 -9 -10
2 -2 -1 -0 -1 -0 -1 1 1 2 2 2 1 3 3 2 2 2 2 1 0 0 1 0 -0 -0 -1 -2 -2 -3 -4 -4 -4 -4 -5 -6 -7 -7 -8 -9 -10 -10 -11 -11
1 -1 -0 2 3 2 0 1 1 1 1 2 2 2 2 2 1 1 1 0 -1 -1 -1 -1 -1 -1 -2 -3 -3 -4 -5 -5 -5 -6 -7 -7 -8 -9 -9 -10 -11 -12 -12 -12
-1 -1 -1 1 1 2 2 3 2 1 3 1 2 1 2 2 1 1 -0 -1 -1 -2 -2 -2 -2 -3 -3 -4 -4 -5 -5 -5 -6 -7 -7 -8 -9 -10 -11 -12 -12 -13 -13 -13
-2 -2 -2 -1 -0 1 1 1 1 2 3 1 1 1 1 1 -0 0 -0 -1 -2 -2 -3 -3 -4 -4 -4 -4 -5 -6 -6 -7 -7 -7 -8 -9 -10 -11 -12 -13 -13 -13 -14 -14
-1 -2 -3 -2 -1 -2 -4 1 -0 1 1 1 -0 2 0 1 0 -1 -1 -2 -3 -3 -4 -4 -5 -5 -5 -6 -6 -7 -7 -8 -8 -9 -9 -11 -12 -12 -13 -13 -14 -14 -14 -14
-2 -3 -3 -2 -3 -4 -1 -1 -1 -1 0 0 0 0 -0 -2 -2 -2 -3 -3 -3 -3 -4 -5 -6 -6 -7 -7 -7 -7 -8 -8 -9 -10 -11 -12 -12 -13 -13 -14 -14 -14 -14 -15
-3 -3 -3 -3 -5 -2 -1 -2 -2 -2 -1 -1 -1 -2 -4 -3 -3 -3 -3 -3 -3 -4 -5 -5 -6 -6 -7 -7 -8 -8 -8 -9 -10 -11 -12 -12 -13 -13 -14 -14 -14 -14 -15 -15
-3 -3 -3 -5 -4 -3 -1 -1 -2 -3 -3 -2 -2 -3 -4 -5 -5 -4 -3 -4 -4 -5 -5 -6 -7 -7 -8 -8 -8 -8 -9 -10 -11 -12 -13 -13 -13 -13 -14 -14 -15 -15 -15 -16
-4 -5 -5 -5 -5 -4 -3 -3 -4 -5 -3 -3 -4 -6 -5 -5 -5 -4 -5 -5 -5 -6 -7 -7 -7 -8 -8 -8 -9 -10 -11 -12 -12 -13 -13 -13 -14 -14 -14 -15 -15 -15 -16 -16
-2 -5 -5 -5 -6 -5 -4 -5 -6 -5 -6 -6 -5 -5 -5 -5 -5 -6 -6 -6 -7 -8 -8 -8 -8 -9 -9 -10 -10 -11 -12 -13 -13 -13 -14 -14 -14 -15 -15 -15 -15 -16 -16 -16
-5 -4 -4 -4 -4 -5 -6 -6 -7 -7 -7 -7 -6 -6 -6 -6 -7 -7 -8 -8 -8 -9 -9 -9 -10 -10 -10 -11 -12 -13 -13 -13 -14 -14 -14 -14 -15 -15 -15 -16 -16 -16 -16 -17
-5 -5 -5 -5 -5 -6 -6 -7 -8 -8 -8 -7 -7 -7 -7 -8 -8 -8 -9 -9 -9 -10 -10 -10 -11 -11 -12 -13 -13 -13 -13 -14 -14 -14 -15 -15 -15 -15 -16 -16 -16 -17 -17 -17
-5 -5 -6 -6 -6 -8 -9 -9 -10 -9 -8 -8 -8 -8 -8 -8 -8 -9 -9 -10 -10 -11 -11 -11 -11 -12 -12 -13 -13 -14 -14 -14 -14 -15 -15 -15 -16 -16 -16 -16 -17 -17 -17 -17
-5 -6 -7 -7 -9 -10 -10 -9 -9 -8 -8 -8 -9 -8 -9 -9 -9 -10 -10 -11 -11 -11 -11 -11 -12 -12 -13 -13 -13 -14 -14 -15 -15 -15 -15 -16 -16 -16 -16 -17 -17 -17 -17 -17

GFSCGP_700_temp_045.txt.gz
Temp
6 5 6 7 6 6 6 6 7 7 6 6 6 6 6 6 6 6 6 6 6 6 6 6 6 6 6 6 6 5 5 5 5 5 5 5 5 4 4 4 3 3 3 3
6 6 7 5 6 5 6 5 6 6 5 5 6 5 6 5 6 6 6 6 6 6 6 6 6 6 6 5 5 5 5 5 5 5 5 4 4 4 4 3 3 3 2 2
6 5 6 6 6 6 6 5 5 5 5 5 5 4 6 7 6 6 6 6 5 5 5 5 5 5 5 5 4 4 4 4 4 4 4 4 4 3 3 3 2 2 2 2
4 5 5 5 5 5 4 5 5 4 3 5 3 5 6 6 5 6 6 5 5 5 5 5 5 5 4 4 4 4 4 4 3 3 3 3 3 2 2 2 2 1 1 1
5 5 5 5 5 4 4 4 4 4 3 3 3 2 5 6 5 7 7 7 6 6 6 5 5 4 4 3 3 3 3 3 3 2 2 2 1 1 1 1 1 1 0 0
4 3 4 4 4 4 4 3 3 2 1 3 3 3 5 6 7 7 7 7 7 6 6 5 5 4 3 3 3 2 2 2 2 1 1 1 1 1 1 0 -0 -0 -1 -1
2 3 3 3 3 3 3 2 3 3 2 3 4 4 4 6 6 7 7 7 6 6 6 5 4 3 3 2 2 2 2 1 1 1 0 0 -0 -1 -1 -1 -1 -1 -2 -2
3 3 3 5 5 3 3 2 3 3 4 5 1 2 4 6 6 7 7 7 6 6 6 5 4 3 2 2 2 1 1 1 0 -0 -0 -1 -1 -2 -2 -2 -2 -2 -2 -2
3 4 4 4 4 2 -0 -0 2 2 1 0 3 3 3 5 7 6 7 7 7 6 6 5 4 3 2 2 1 1 0 0 -0 -1 -1 -2 -2 -2 -2 -2 -3 -3 -3 -3
3 3 3 3 3 2 0 1 -0 0 1 2 5 5 5 6 6 7 7 7 6 5 5 4 4 3 3 2 1 0 -0 -1 -1 -2 -2 -2 -2 -3 -3 -3 -4 -4 -4 -4
3 3 2 2 1 3 1 -1 0 1 2 3 5 6 5 6 6 6 6 6 5 5 4 4 4 3 3 2 1 0 -1 -1 -2 -2 -3 -2 -3 -3 -4 -4 -4 -5 -5 -5
5 2 2 2 1 2 0 1 0 1 1 1 3 5 5 5 5 5 5 5 4 4 4 3 3 3 2 2 1 -0 -1 -2 -2 -3 -3 -3 -4 -4 -5 -5 -5 -6 -6 -7
3 0 -0 0 -1 -1 -0 1 0 0 2 2 2 4 5 4 4 5 5 4 4 3 3 2 2 2 1 1 0 -1 -2 -2 -3 -3 -4 -4 -4 -5 -5 -6 -7 -7 -7 -8
2 1 1 2 4 3 1 1 1 -0 -0 1 2 3 4 4 4 4 4 4 3 2 1 1 1 1 1 0 -1 -1 -2 -3 -3 -4 -4 -5 -5 -6 -7 -7 -8 -8 -9 -10
-1 -1 -0 1 2 2 1 2 2 0 2 1 3 2 2 3 3 3 3 3 2 1 1 0 -0 -0 -0 -1 -1 -2 -3 -3 -4 -5 -5 -6 -7 -7 -7 -8 -9 -10 -11 -12
-2 -2 -1 0 1 -0 0 -1 -0 1 2 1 2 2 3 2 2 2 2 2 1 1 -1 -1 -1 -1 -1 -2 -2 -3 -3 -4 -5 -5 -6 -7 -7 -8 -8 -9 -11 -11 -12 -12
-1 -1 -2 -2 -1 -1 -3 2 -1 -0 0 1 0 3 2 2 1 1 1 -0 -1 -1 -1 -1 -2 -2 -3 -3 -3 -4 -4 -5 -6 -6 -7 -8 -8 -9 -10 -11 -11 -12 -13 -13
-1 -1 -2 -2 -2 -2 2 2 1 -0 0 -1 0 1 0 0 -0 -2 -2 -3 -2 -3 -2 -2 -3 -4 -4 -4 -4 -5 -6 -6 -6 -7 -8 -8 -9 -10 -11 -12 -12 -13 -13 -14
-2 -2 -3 -3 -2 -0 1 -0 0 -0 2 1 -1 -2 -1 -1 -2 -2 -3 -3 -3 -5 -4 -4 -4 -5 -5 -5 -5 -6 -7 -7 -7 -8 -8 -9 -10 -11 -12 -12 -13 -13 -13 -14
-2 -3 -3 -4 -3 -1 1 1 0 -0 -1 -1 -1 -1 -2 -2 -3 -2 -2 -4 -5 -5 -4 -5 -5 -5 -5 -6 -7 -7 -7 -8 -8 -8 -9 -11 -12 -12 -12 -13 -13 -14 -14 -14
-4 -4 -4 -4 -4 -2 -1 -1 -2 -3 -1 -1 -2 -1 -2 -3 -3 -4 -4 -5 -5 -5 -5 -5 -5 -5 -6 -7 -7 -7 -8 -8 -9 -10 -11 -12 -12 -13 -13 -13 -14 -14 -15 -15
-2 -4 -5 -5 -5 -4 -2 -3 -3 -2 -3 -3 -3 -4 -4 -4 -4 -5 -5 -5 -5 -5 -5 -6 -6 -7 -7 -7 -8 -8 -8 -9 -10 -11 -12 -13 -13 -13 -14 -14 -15 -15 -15 -15
-4 -4 -4 -4 -4 -4 -4 -3 -4 -3 -4 -4 -4 -5 -5 -6 -6 -5 -5 -5 -6 -6 -6 -7 -7 -8 -8 -8 -9 -9 -10 -11 -12 -12 -13 -13 -13 -14 -14 -15 -15 -15 -15 -15
-4 -3 -4 -4 -5 -5 -5 -5 -4 -4 -4 -4 -5 -6 -6 -6 -6 -6 -7 -7 -7 -7 -8 -8 -8 -9 -9 -10 -10 -10 -11 -12 -13 -13 -13 -14 -14 -14 -15 -15 -15 -15 -15 -15
-4 -5 -5 -5 -5 -6 -6 -6 -6 -6 -6 -6 -6 -7 -7 -7 -7 -7 -8 -8 -8 -8 -9 -9 -10 -10 -10 -11 -11 -11 -12 -12 -13 -13 -14 -14 -14 -15 -15 -15 -15 -15 -16 -16
-5 -5 -6 -6 -6 -6 -7 -7 -7 -7 -7 -7 -7 -8 -8 -8 -8 -8 -9 -9 -9 -10 -10 -11 -11 -11 -11 -11 -11 -12 -12 -12 -13 -13 -14 -14 -15 -15 -15 -16 -16 -16 -16 -16

GFSCGP_700_temp_048.txt.gz
Temp
6 6 7 8 7 7 7 7 7 7 7 6 7 7 7 7 7 7 7 7 7 7 7 7 7 6 6 6 6 6 6 6 6 6 6 5 5 5 4 4 4 4 3 3
5 6 7 6 6 5 5 6 6 7 6 6 6 6 6 5 7 7 7 7 7 8 7 7 6 6 6 6 6 6 6 5 5 5 5 5 5 4 4 4 3 3 3 2
6 6 6 6 5 5 5 5 6 5 6 5 5 5 6 7 7 7 7 8 8 8 7 6 6 6 6 6 6 5 5 5 5 5 5 4 4 4 3 3 3 2 2 2
5 5 5 5 5 5 5 5 5 5 5 4 5 3 5 6 6 7 8 8 8 8 6 6 6 6 6 6 5 5 5 5 4 4 4 4 3 3 2 2 2 2 2 2
5 5 5 6 6 5 5 5 5 4 4 3 4 3 4 5 7 7 8 7 7 6 7 5 5 6 6 5 5 4 4 4 4 4 3 3 3 2 2 1 1 1 1 1
3 4 4 4 5 4 4 4 4 4 3 0 3 3 4 6 7 7 7 7 6 6 6 6 6 6 6 5 4 3 3 3 3 3 3 2 2 1 1 1 0 0 -0 -0
2 3 3 3 4 4 3 3 3 0 -0 -0 4 4 4 6 7 7 7 6 6 7 7 7 6 6 5 5 4 3 3 3 2 2 2 2 1 1 0 -0 -0 -1 -1 -2
3 3 3 4 4 4 3 3 3 -0 -0 0 3 3 4 6 7 7 7 7 7 7 7 7 6 5 5 4 3 3 2 2 2 2 1 1 1 0 -0 -1 -1 -2 -2 -2
4 4 4 4 3 2 1 1 3 3 2 -0 3 4 5 5 6 7 7 7 8 8 7 6 6 6 5 4 3 2 2 2 1 1 1 0 -0 -0 -1 -2 -2 -2 -2 -3
4 4 3 3 3 2 1 2 1 1 -3 -2 3 4 5 6 8 6 7 8 8 7 7 7 6 5 4 3 3 2 2 1 0 0 0 -0 -1 -1 -2 -2 -2 -3 -3 -3
3 3 2 2 2 4 2 0 2 2 1 -2 -1 4 6 7 6 6 7 7 7 7 7 6 5 5 4 3 3 2 1 1 0 -0 -1 -1 -2 -2 -2 -2 -3 -3 -4 -4
4 2 2 3 3 3 3 3 2 2 1 2 2 3 5 5 6 7 7 7 7 6 6 6 5 5 4 3 3 2 1 0 -0 -1 -1 -2 -2 -2 -3 -3 -4 -4 -5 -5
3 0 1 1 0 -0 1 2 2 2 2 2 0 3 4 5 4 5 6 6 6 6 6 5 5 4 3 3 3 2 1 0 -1 -2 -2 -3 -3 -3 -3 -4 -5 -5 -5 -6
2 1 1 2 3 3 1 1 2 1 0 1 2 2 3 4 4 4 5 5 6 6 5 5 4 3 2 2 2 1 1 -0 -2 -2 -3 -3 -4 -4 -4 -5 -5 -6 -6 -7
-0 -1 0 2 1 2 2 2 2 0 2 0 3 3 3 4 3 4 3 4 4 5 5 4 3 2 1 1 1 1 0 -1 -2 -3 -3 -4 -4 -5 -5 -6 -7 -7 -8 -8
-2 -2 -2 -1 0 0 1 -0 -1 1 1 1 1 2 2 2 2 2 2 3 3 4 4 3 2 1 0 -0 -0 -0 -1 -2 -3 -3 -4 -5 -5 -6 -6 -8 -8 -8 -8 -9
-2 -2 -2 -2 -1 -1 -2 1 0 -0 -0 1 1 4 2 2 2 1 2 2 2 2 2 2 1 -1 -1 -1 -1 -1 -2 -2 -3 -4 -5 -5 -6 -7 -7 -8 -8 -9 -10 -11
-1 -1 -2 -2 -2 -2 1 1 1 1 2 0 1 1 1 0 1 1 1 1 1 0 0 -0 -2 -2 -3 -3 -2 -2 -3 -3 -4 -5 -5 -6 -7 -7 -8 -8 -9 -10 -11 -12
-2 -2 -3 -2 -2 -0 1 0 1 1 3 2 2 2 1 0 -1 0 0 0 -0 -1 -2 -1 -2 -3 -4 -4 -3 -4 -4 -4 -5 -6 -6 -7 -8 -8 -9 -9 -10 -11 -12 -12
-2 -2 -2 -3 -2 -1 0 1 1 0 1 1 1 2 2 1 -1 -0 -1 -1 -1 -2 -3 -3 -3 -4 -5 -5 -5 -5 -5 -6 -6 -6 -8 -8 -8 -9 -9 -10 -11 -12 -12 -13
-4 -4 -4 -3 -3 -2 -0 -1 -1 -1 1 1 1 1 1 0 -0 -2 -2 -2 -2 -3 -3 -3 -5 -6 -6 -6 -6 -6 -6 -6 -7 -8 -8 -8 -9 -9 -10 -11 -12 -13 -13 -14
-1 -4 -5 -5 -4 -3 -2 -2 -2 -1 -0 -0 -0 -1 -0 -1 -2 -3 -3 -3 -3 -4 -5 -5 -5 -5 -5 -5 -5 -6 -7 -8 -8 -8 -9 -9 -10 -10 -11 -12 -13 -13 -14 -14
-3 -3 -2 -3 -3 -2 -2 -2 -3 -2 -2 -2 -3 -2 -2 -3 -4 -4 -4 -4 -5 -5 -5 -5 -5 -6 -6 -7 -7 -8 -8 -9 -9 -9 -9 -10 -11 -11 -12 -13 -13 -14 -14 -15
-3 -3 -4 -3 -3 -3 -2 -3 -3 -4 -4 -4 -4 -4 -4 -4 -5 -5 -5 -5 -5 -6 -6 -6 -7 -7 -8 -8 -8 -8 -9 -9 -9 -10 -10 -11 -12 -12 -13 -14 -14 -15 -15 -15
-3 -4 -4 -4 -4 -3 -3 -3 -4 -4 -4 -4 -5 -5 -5 -6 -6 -6 -6 -6 -6 -7 -7 -8 -8 -8 -9 -9 -9 -9 -10 -10 -10 -11 -11 -12 -12 -13 -14 -14 -14 -15 -15 -15
-5 -5 -5 -5 -5 -5 -5 -5 -6 -6 -6 -6 -6 -6 -6 -6 -7 -7 -7 -7 -8 -8 -8 -9 -9 -9 -10 -10 -10 -10 -11 -11 -11 -12 -12 -12 -13 -13 -14 -14 -15 -15 -15 -16